星链-37855(STARLINK-37855)

导读

STARLINK-37855(NORAD编号69493)是美国SpaceX公司星链互联网星座的第二代低轨通信卫星,隶属2026年5月1日发射的星链10-38任务,由复用31次的猎鹰9号Block 5火箭从卡纳维拉尔角发射入轨。 该卫星运行于近地轨道,轨道周期约93分钟,搭载激光星间链路、相控阵通信天线及自主避碰系统,单星通信带宽可达数十Gbps,主要为全球偏远地区、航空、海事场景提供低延迟高速互联网接入服务,截至2026年6月处于在轨正常运营状态。

基本信息
目录编号:
69493
目录名称:
STARLINK-37855
国际标识:
2026-131R
轨道中心:
EARTH
卫星名称:
星链-37855
卫星全名:
星链-37855(STARLINK-37855)
卫星状态:
在轨 (已飞行86 天)
发射日期:
2026-06-11 UTC
国别 :
美国 (US)
星等 :
--
轨道信息
数据来源 国际轨道数据 AOE轨道数据
星历时间 2026-09-05T03:12:20+0800
12小时前
查看轨道信息
2026-09-04T21:00:00+0800
18小时前
查看轨道信息
半长轴 6843.63km 6843.713km
偏心率 0.000065 0.0001708
轨道倾角 97.285° 97.286°
近地点辐角 103.954° 100.668°
升交点赤经 268.926° 268.672°
平近点角 256.177° 272.947°
近地点 465.048km 464.407km
远地点 465.938km 466.745km
周期 93.905分钟 93.907分钟
每日圈数 15.334619 15.334342
详细信息
固有亮度:
5
最大亮度:
2.5
卫星平台:
Starlink V1.0
覆盖范围:
全球
运营商:
太空探索技术公司
运营商所在国:
美国
制造商(研发单位):
太空探索技术公司
制造商所在国:
美国
使用方式:
暂无
卫星简介
Starlink 计划是 SpaceX 推出的全球卫星互联网项目,通过发射低轨道卫星,为全球尤其是偏远地区提供高速、低延迟的互联网服务。自 2019 年起,Starlink 已部署数千颗卫星,旨在缩小全球数字鸿沟,推动互联网普及。该项目还为军事、航空等行业提供通信支持,带来广泛经济效益。
2D轨道图
3D轨道图
轨道高度分析图
轨道倾角分析图
轨道综合分析图
查看轨道综合分析图
交会数据列表
事件ID 空间交会对象 最接近时刻(TCA) 交会距离 交会风险概率(CRP) 交会风险指数(CRI) 操作
CDM_260905-145700-635006-949324
2026-09-05T
14:57:21+0000
1.317 km
极远距离
1.001724E-5 中风险 0.55
CDM_260903-023304-775306-949321
2026-09-03T
02:33:36+0000
2.140 km
极远距离
2.414802E-6 低风险 0.43
CDM_260903-014604-775306-949321
2026-09-03T
01:46:37+0000
2.602 km
极远距离
1.6315E-6 低风险 0.39
CDM_260906-231404-302406-949321
2026-09-06T
23:14:53+0000
2.874 km
极远距离
1.132051E-6 低风险 0.36
CDM_260905-082205-198506-949321
2026-09-05T
08:22:29+0000
2.866 km
极远距离
9.205704E-7 极低风险 0.34